Theta_e
320 321 320 320 319 319 317 317 318 319 320 319 318 317 316 315 315 313 313 313 313 315 317 319 320 324 322 323 325 326 326 326 324 332 338 338 332 330 330 330 327 324 322
320 319 319 319 318 317 316 317 319 319 319 318 317 315 314 313 313 311 311 312 311 310 311 314 316 319 324 327 324 330 329 332 325 330 339 330 330 329 329 325 323 321 320
319 317 318 317 316 316 316 317 318 318 318 318 316 313 311 312 311 313 311 310 311 311 311 310 313 317 320 323 326 325 327 331 332 328 333 327 328 327 324 322 320 317 318
317 317 316 316 315 314 315 316 316 317 316 315 314 313 313 313 313 313 311 310 311 312 314 313 312 313 317 322 324 328 328 330 331 330 331 325 323 325 321 314 312 313 310
316 314 314 314 314 313 313 314 315 315 314 313 312 312 313 312 312 313 311 310 309 310 310 311 310 312 313 316 321 325 328 326 329 327 328 323 321 318 314 314 311 310 310
314 312 312 312 312 311 312 312 313 312 310 309 310 310 311 312 308 305 308 310 310 308 306 308 311 310 311 309 310 312 316 329 330 328 329 320 319 318 316 312 309 305 304
312 311 310 310 310 310 310 309 307 306 307 306 307 309 310 311 305 303 304 308 307 306 305 306 307 310 310 310 310 310 312 311 313 327 327 322 318 318 317 312 311 309 314
310 309 309 309 308 309 308 306 305 305 304 305 305 307 307 310 304 302 303 307 307 307 306 305 306 307 309 310 311 316 320 321 322 323 327 326 324 321 320 316 313 316 317
308 308 308 308 308 306 304 304 303 303 304 304 305 306 306 309 303 300 302 307 305 306 307 307 306 307 304 301 309 313 319 322 318 312 314 313 311 310 316 315 312 310 307
308 307 307 307 305 304 303 303 303 303 302 303 303 306 304 306 303 299 301 304 303 304 305 305 304 306 302 300 305 310 312 320 325 328 325 314 311 312 311 317 316 310 308
308 307 306 304 303 303 302 302 302 301 301 301 302 303 304 305 306 300 298 300 301 300 300 301 306 302 300 300 301 310 309 318 323 331 331 322 317 317 317 319 319 314 309
307 306 305 302 301 301 301 300 299 299 298 299 300 301 305 307 303 300 297 297 298 297 297 300 303 301 299 298 300 302 301 305 326 328 323 318 316 316 318 319 321 318 317
305 301 300 301 300 299 298 297 297 298 298 298 297 298 299 300 302 297 296 295 296 297 298 299 299 299 299 300 299 300 301 313 321 320 320 317 317 317 320 318 320 318 321
300 300 300 299 298 298 298 298 297 297 296 295 295 294 294 296 297 298 297 295 295 296 297 297 298 299 302 305 305 302 308 314 319 321 320 319 318 318 317 318 316 313 310
300 299 299 299 298 298 298 297 297 299 296 294 293 293 292 292 296 293 292 292 293 295 297 299 307 300 305 309 312 309 311 318 320 323 320 316 316 317 316 317 314 310 306
298 298 298 297 297 298 296 297 296 294 293 292 291 292 294 293 292 291 291 292 293 295 306 315 314 313 310 314 317 317 324 319 322 320 317 316 315 315 315 315 312 310 305
297 297 297 296 296 296 296 295 293 295 294 293 292 292 292 291 291 291 293 294 297 303 315 318 317 317 319 323 326 326 320 323 322 319 317 316 315 316 313 311 312 310 307
298 294 297 296 296 296 296 294 293 292 291 293 295 293 293 291 290 292 293 298 306 309 313 315 318 319 318 319 320 320 322 321 320 318 318 316 316 314 313 312 311 310 308
297 296 297 297 297 296 297 294 293 292 292 292 294 294 293 291 292 293 294 300 302 305 310 312 319 320 321 323 323 322 320 319 318 317 317 316 315 315 313 313 312 305 306
298 293 293 296 296 297 296 294 292 291 291 291 291 292 292 291 294 296 297 298 299 301 307 311 313 319 322 322 321 320 319 316 318 317 316 316 316 316 314 311 310 307 308
299 298 289 295 295 296 294 293 292 291 290 290 290 292 288 291 293 294 295 297 297 300 303 311 312 313 318 321 321 320 319 318 318 318 317 316 317 316 316 314 310 309 309
301 300 297 295 295 295 293 293 293 291 291 290 291 292 289 294 294 294 295 296 297 299 301 305 311 310 313 317 319 319 318 318 318 317 316 316 317 316 315 312 309 309 306
301 301 299 296 295 292 293 293 292 291 291 291 292 292 293 293 294 294 295 296 298 298 299 302 304 310 311 313 316 319 318 317 317 318 316 315 315 314 313 309 308 307 306
302 301 298 296 295 294 292 291 291 290 290 291 292 292 292 293 294 295 296 297 297 298 299 299 301 302 306 310 313 315 315 316 318 318 317 314 312 308 311 309 309 308 305
302 301 300 296 295 293 292 291 291 291 291 291 292 292 292 293 294 295 296 297 298 298 298 298 298 300 299 300 301 303 295 294 308 301 313 311 310 309 308 306 305 304 302
301 300 300 298 296 293 292 292 291 291 292 292 292 292 293 293 293 294 296 296 297 297 298 299 297 297 297 296 294 290 290 292 299 296 309 309 307 305 305 303 303 301 302
Wind_Speed
10 9 9 9 9 10 10 11 12 12 12 13 13 14 14 15 14 14 15 16 16 16 16 17 19 19 16 15 15 15 14 14 13 13 7 12 13 12 12 11 15 12 12
10 8 9 9 10 11 11 13 13 13 12 13 14 14 15 15 15 16 17 16 17 18 19 20 21 16 20 19 16 16 15 14 15 14 8 3 7 14 15 14 13 10 11
9 9 9 10 11 12 13 13 13 14 14 14 14 15 14 15 17 16 15 17 18 19 19 20 21 21 20 18 17 17 16 12 12 14 9 4 2 11 12 11 12 13 10
9 10 10 11 12 12 13 14 14 14 15 15 15 14 15 16 17 18 16 17 18 20 19 18 20 23 22 20 19 18 16 14 14 14 8 8 10 11 12 14 12 10 12
9 10 10 11 12 13 14 14 14 15 15 15 15 16 16 15 14 17 17 18 19 20 19 19 18 22 28 26 16 17 18 17 15 15 10 7 10 14 16 11 12 13 9
9 10 10 11 12 13 13 14 15 15 15 15 15 17 18 13 19 17 20 17 18 18 18 20 21 25 25 29 31 31 20 18 18 15 9 12 15 15 12 15 15 15 11
9 9 11 12 12 13 13 14 15 15 15 16 16 17 18 19 20 18 23 18 18 18 19 19 19 18 24 20 26 31 31 25 17 14 13 14 16 18 18 18 18 18 13
8 10 11 12 13 13 14 14 15 14 15 15 16 19 18 18 21 18 22 17 17 20 20 22 22 22 21 22 20 24 24 24 23 18 16 14 17 17 20 22 20 14 12
8 10 10 12 13 14 14 15 15 15 15 15 17 19 21 20 21 18 16 16 18 21 19 21 23 23 26 25 23 22 22 19 23 23 20 15 21 23 17 16 14 14 14
8 9 11 12 12 14 15 15 14 14 17 15 19 20 24 21 24 19 17 14 18 15 17 20 30 27 28 28 22 21 19 19 21 20 21 14 20 25 30 23 20 17 15
8 9 10 11 12 13 13 14 14 13 15 18 19 19 20 20 22 20 18 15 16 15 15 15 15 28 34 28 28 21 20 19 20 18 17 13 17 20 17 16 19 18 19
8 10 10 11 10 11 14 14 15 15 16 17 18 17 15 17 20 22 26 24 25 17 19 15 17 25 29 36 27 29 22 21 16 15 15 15 17 16 16 15 18 14 9
8 9 10 11 10 11 13 14 12 13 13 14 13 15 14 15 15 24 25 26 26 18 16 22 28 25 30 29 34 32 30 17 16 15 15 16 16 16 16 16 14 15 7
8 9 9 10 10 10 9 10 11 11 12 12 13 12 14 16 15 13 13 17 24 20 21 22 27 30 29 23 21 24 19 17 16 15 15 14 15 15 14 15 15 11 12
7 8 8 8 9 10 9 10 11 12 11 12 12 12 14 17 17 27 26 20 18 21 19 13 11 15 17 14 15 16 18 18 19 15 17 14 15 16 14 15 14 13 13
7 6 7 8 8 9 9 11 10 14 19 20 21 16 13 23 31 35 35 33 31 21 5 3 6 11 14 15 15 16 17 21 14 16 17 17 15 15 15 14 14 14 15
5 6 7 7 8 9 10 11 13 12 18 15 16 18 20 22 28 30 31 31 20 15 5 4 7 10 14 15 15 15 14 16 19 16 17 17 17 16 18 15 14 14 14
6 2 7 6 8 9 10 10 10 12 14 16 15 18 22 28 30 26 28 20 13 12 8 7 5 10 10 13 12 13 14 16 16 16 16 16 16 18 16 15 15 17 16
5 6 7 6 7 9 9 9 10 11 11 12 14 14 20 29 24 20 21 11 11 11 10 8 6 4 8 12 13 13 14 14 14 15 15 15 15 17 16 16 15 18 19
6 3 6 6 7 9 9 9 10 10 11 10 11 12 15 16 14 14 13 13 12 11 11 8 7 3 5 12 12 13 13 14 14 13 14 14 15 14 16 17 16 17 15
4 6 4 6 7 8 8 9 9 9 10 10 10 12 19 10 12 12 12 12 12 11 11 9 8 7 4 9 12 12 13 13 13 14 13 14 14 14 14 15 15 15 14
5 6 6 6 7 8 8 8 9 9 10 10 10 12 16 11 11 12 12 12 11 11 10 11 8 9 7 4 9 13 13 13 13 14 14 14 13 13 13 14 14 14 15
6 8 9 8 7 7 8 8 9 10 10 11 11 11 11 11 11 12 13 12 12 12 11 11 11 8 9 8 5 7 12 12 13 14 15 14 13 13 13 14 15 14 15
6 8 10 9 8 8 8 9 9 11 11 11 11 11 11 11 12 13 12 12 12 13 13 12 11 14 10 10 7 7 8 7 9 13 18 15 13 12 13 13 14 17 14
7 8 10 9 8 7 7 9 10 10 11 11 11 11 12 12 13 13 13 12 12 13 15 15 13 16 17 18 15 12 11 13 11 8 11 15 16 15 12 11 13 13 16
7 9 9 9 9 8 8 9 9 9 10 10 11 12 12 13 13 13 13 14 13 13 16 14 17 21 21 15 15 15 14 13 13 11 10 12 12 11 10 13 17 13 18
Wind_Direction
216 230 243 258 271 280 282 283 282 280 275 273 273 272 270 268 265 262 259 265 265 263 258 257 257 254 258 252 246 247 244 247 241 243 227 177 175 169 167 158 145 150 148
226 236 250 266 276 281 283 284 282 277 276 274 273 273 271 271 266 260 262 264 259 253 253 258 260 254 246 242 254 250 246 237 251 226 221 172 167 174 162 152 146 137 154
232 243 256 271 281 284 283 283 281 280 279 278 275 272 267 262 263 258 253 256 259 256 256 255 257 258 251 254 241 242 244 244 240 250 188 156 155 160 147 139 136 133 131
234 246 264 277 286 288 288 284 282 282 281 279 275 272 266 264 262 260 256 251 250 255 255 242 248 254 260 253 242 244 240 247 232 233 208 167 157 157 148 141 132 133 136
240 257 273 283 286 287 285 285 286 283 281 281 278 272 267 263 263 262 252 250 250 250 251 255 246 247 253 263 264 234 238 235 239 223 194 176 166 156 159 157 141 134 150
245 265 280 286 286 286 289 289 288 290 290 285 278 271 269 264 264 243 250 259 255 253 249 247 246 242 243 254 263 266 270 237 229 241 188 184 168 164 154 154 145 143 149
254 275 283 289 287 290 297 296 291 287 285 280 277 277 275 271 262 255 248 252 254 249 247 247 245 244 236 236 247 242 252 257 249 264 219 184 173 167 161 158 162 167 166
268 282 288 292 296 295 298 294 292 288 284 279 277 277 275 271 271 252 251 256 257 252 245 244 241 238 234 235 240 245 231 235 243 241 242 190 169 169 174 165 158 160 133
275 288 299 300 299 302 295 295 295 287 286 282 280 280 277 277 273 267 263 271 267 259 250 242 238 236 231 222 231 247 228 218 214 223 228 189 168 159 167 137 156 147 150
290 307 301 302 305 296 299 295 292 286 286 287 287 285 283 281 278 270 268 269 267 262 255 253 239 229 224 216 217 230 238 225 226 206 214 176 169 162 163 164 159 156 150
305 301 307 304 299 300 298 295 295 294 291 289 290 290 288 281 280 274 270 267 264 264 260 255 245 223 220 215 211 215 222 227 230 212 196 172 171 167 170 166 169 166 162
308 304 314 316 307 303 303 306 299 296 293 293 296 295 292 295 290 281 275 263 262 257 253 246 239 233 213 212 207 212 216 219 235 206 189 167 167 171 171 164 168 168 192
323 324 309 308 312 314 307 305 301 298 296 301 304 302 299 297 294 287 280 275 267 253 250 250 252 241 216 210 200 206 207 219 216 211 181 168 167 165 157 155 156 159 140
318 314 320 319 321 313 309 301 304 305 306 305 306 301 298 299 300 303 305 303 299 284 258 243 236 229 221 211 193 197 198 205 210 200 158 159 155 159 156 152 145 137 128
320 324 322 322 328 314 318 309 304 303 304 303 298 299 302 301 301 304 299 297 289 277 275 252 231 190 198 191 192 180 193 195 199 168 144 146 154 153 154 148 143 137 141
323 332 337 331 323 320 324 316 305 288 292 290 285 279 292 286 294 300 300 299 296 293 239 290 118 137 159 170 171 168 174 173 158 145 149 149 148 149 148 148 147 146 146
343 333 333 325 332 330 328 324 315 316 306 296 291 296 298 297 312 318 321 324 316 335 2 36 116 131 139 150 153 151 155 149 143 146 148 152 150 152 149 149 148 146 151
348 332 326 337 328 331 332 327 317 322 326 325 329 326 327 328 331 326 332 329 353 354 5 12 47 135 146 152 155 159 141 142 145 146 147 146 153 153 152 156 154 153 154
6 5 340 336 334 324 335 330 319 325 325 321 325 334 338 339 330 338 337 355 348 351 353 9 9 39 113 128 137 141 138 139 143 144 142 150 156 158 154 155 155 155 155
25 23 342 353 337 341 348 332 329 333 331 332 333 336 337 338 349 345 350 350 351 348 349 359 18 12 123 130 127 136 137 139 137 140 145 149 157 156 153 152 152 154 159
18 38 7 360 344 349 349 338 337 334 336 334 337 336 328 331 340 345 347 350 348 346 350 354 17 28 66 125 131 131 133 137 144 147 147 151 153 154 157 155 153 155 149
33 56 54 20 354 360 350 349 347 345 342 341 343 345 340 351 351 351 349 354 355 356 354 357 17 32 27 72 134 140 141 143 146 144 143 149 148 150 150 148 152 151 148
29 33 46 44 6 7 359 360 360 355 349 349 352 354 357 358 356 358 350 353 0 4 3 7 10 32 37 37 48 128 140 148 149 146 143 148 149 147 149 149 151 150 153
24 42 49 45 25 10 5 2 0 359 358 359 0 1 2 2 4 2 360 359 6 6 11 14 16 25 35 42 45 70 88 109 137 144 141 141 138 141 146 147 149 156 150
33 37 56 57 34 17 12 9 6 4 3 5 4 7 4 6 8 9 10 9 14 13 16 13 15 24 34 43 48 55 74 73 87 92 117 124 128 133 133 130 141 139 145
49 41 47 58 50 29 24 17 12 5 6 7 7 10 9 10 11 12 13 15 20 21 23 22 23 24 30 32 43 43 43 67 83 84 103 114 117 120 124 133 137 143 150